Probability
0 0 0 0 0 0 0 0 0 0 1 1 2 3 3 4 7 8 7 4 3 3 2 1 0 0 0 0 0 0 0 1 1 1 0 0 0 0 0 1 0 0 0 0
0 0 0 0 0 0 0 0 0 0 1 1 2 3 3 4 5 6 5 4 3 3 1 0 0 0 0 0 0 0 0 0 0 0 0 0 0 0 0 1 0 0 0 1
0 0 0 0 0 0 0 0 0 0 0 0 1 2 2 3 4 5 4 4 3 2 1 0 0 0 0 0 0 0 0 0 0 0 0 0 0 0 0 0 0 0 1 2
0 0 0 0 0 0 0 0 0 0 0 0 0 1 1 3 5 6 5 4 3 1 0 0 0 0 0 0 0 0 0 0 0 0 0 0 0 0 0 0 0 1 2 3
0 0 0 0 0 0 0 0 0 0 0 0 0 0 1 3 5 6 6 4 2 1 0 0 0 0 0 0 0 0 0 0 0 0 0 0 1 0 0 0 1 1 3 3
0 0 0 0 0 0 0 0 0 0 0 0 0 0 0 1 4 6 7 6 3 1 0 0 0 1 1 1 1 1 1 1 0 0 0 0 0 0 0 1 2 3 3 3
0 0 0 0 0 0 0 0 0 0 0 0 0 0 0 1 3 5 8 8 5 2 1 1 1 2 3 3 2 2 3 2 1 0 0 0 0 1 1 2 3 3 3 3
0 0 0 0 0 0 0 0 0 0 0 0 0 0 0 0 2 5 7 8 5 2 1 2 1 2 3 4 3 5 5 3 1 0 0 0 1 2 3 3 3 3 3 3
0 0 0 0 0 0 0 0 0 0 0 0 0 0 0 0 2 5 7 6 3 1 1 1 1 1 2 3 5 6 6 4 2 1 1 1 2 3 3 3 3 3 3 2
0 0 0 0 0 0 0 0 0 0 0 0 0 0 1 1 2 5 6 4 1 0 0 1 2 2 3 5 6 5 5 4 3 4 4 3 3 3 3 3 3 4 3 2
0 0 0 0 0 0 0 0 0 0 0 0 0 1 2 2 2 3 5 3 1 0 1 2 4 5 7 8 7 5 4 3 4 5 5 4 3 3 3 4 4 5 4 3
0 0 0 0 0 0 0 0 0 0 0 0 0 1 2 2 1 2 3 3 1 0 2 5 8 9 10 10 9 6 4 4 5 5 4 4 3 3 4 5 5 5 4 3
0 0 0 0 0 0 0 0 0 0 0 0 0 1 2 1 0 1 3 3 1 1 3 6 9 10 11 11 11 10 8 7 7 7 7 6 5 5 5 5 4 3 3 3
0 0 0 0 0 0 0 0 0 0 0 0 0 1 2 1 0 1 2 3 2 2 3 6 8 10 11 12 13 13 11 10 10 11 10 8 7 5 4 3 2 2 3 3
0 0 0 0 0 0 0 0 0 0 0 0 0 1 2 1 0 1 2 2 2 4 5 7 9 11 13 14 15 14 12 11 11 11 10 8 6 3 2 2 2 3 4 5
0 0 0 0 0 0 0 0 0 0 0 0 0 0 1 1 0 1 2 2 3 6 7 8 8 10 13 15 15 14 12 9 8 7 7 5 4 2 1 2 4 5 5 5
0 0 0 0 0 0 0 0 0 0 0 0 0 0 0 0 0 1 1 1 3 6 8 7 6 7 9 12 13 12 9 6 5 4 4 5 4 4 3 4 5 5 3 3
0 0 0 0 0 0 0 0 0 1 1 0 0 0 1 1 2 2 2 2 3 5 6 6 4 4 5 7 8 7 5 4 3 3 3 4 5 5 4 3 3 2 1 0
0 0 0 0 0 0 0 0 0 1 2 1 0 1 3 5 5 5 4 3 2 3 4 5 4 3 4 4 4 4 4 3 3 3 3 3 4 4 3 2 1 0 0 0
0 0 0 0 0 0 0 0 0 1 2 1 0 1 5 8 7 6 5 4 3 2 2 3 3 3 3 2 1 2 3 3 3 3 3 3 3 3 3 1 0 0 0 0
0 0 0 0 0 0 0 0 1 1 1 0 0 2 6 8 7 6 5 4 4 3 1 1 2 3 3 1 0 1 1 3 3 4 4 3 3 3 2 1 0 0 0 0
0 0 0 0 0 0 0 0 1 1 0 0 1 3 5 5 5 5 4 3 3 3 1 0 1 2 2 2 1 1 1 3 4 5 4 3 2 2 2 1 0 0 0 0
0 0 0 0 0 0 0 0 0 0 0 0 1 4 6 4 3 3 2 1 2 2 1 0 0 1 1 1 1 2 2 2 3 4 4 2 1 1 1 0 0 1 1 1
0 0 0 0 0 0 0 0 0 0 0 0 1 4 6 4 1 1 1 1 1 1 1 0 0 0 0 0 1 2 2 1 1 3 3 2 1 0 0 0 1 2 2 3
0 0 0 0 0 0 0 0 0 0 1 1 2 3 4 3 1 0 0 1 2 1 0 0 0 0 0 0 0 2 2 1 0 1 3 2 1 0 0 0 1 2 2 2
0 0 0 0 0 0 0 0 0 1 2 2 2 2 3 2 1 0 0 1 2 2 1 0 0 0 0 0 0 1 2 1 0 1 2 2 1 0 0 0 0 1 1 1
Wind_Speed
2 3 3 6 6 4 4 3 3 3 2 3 2 2 3 5 7 6 5 5 5 5 4 3 4 4 4 3 3 3 3 2 3 2 2 1 1 1 1 1 1 1 2 2
3 4 7 4 4 4 3 2 2 2 1 2 1 2 2 5 7 8 8 7 6 4 3 4 4 4 4 4 3 3 3 3 3 2 2 1 1 1 0 1 1 1 1 1
6 6 3 4 3 3 3 5 4 3 2 3 1 3 2 2 3 4 5 5 5 7 6 6 5 5 5 4 5 4 3 3 2 3 2 2 2 2 2 1 1 1 1 1
4 4 3 3 4 5 5 5 6 4 3 1 1 2 5 3 3 5 5 5 6 5 6 6 6 6 6 5 4 3 3 3 2 3 3 3 2 1 1 0 0 1 2 1
5 3 4 4 5 6 5 2 4 3 4 1 2 1 7 1 4 7 7 7 7 6 7 7 8 7 6 5 5 4 3 2 2 3 3 3 2 1 1 1 1 1 2 1
5 3 4 5 2 4 4 6 6 5 5 0 2 3 7 4 6 5 7 7 7 7 7 6 5 5 4 4 4 4 4 3 3 3 3 4 3 2 2 1 1 1 1 1
4 4 2 2 2 2 4 6 4 4 3 4 2 3 9 6 5 6 8 8 7 7 6 6 6 6 5 5 5 4 4 3 3 3 3 3 3 3 2 1 1 0 0 1
1 6 4 3 5 6 4 7 7 5 4 4 1 5 7 4 3 3 5 7 6 6 6 7 7 7 6 6 5 5 5 4 3 3 3 2 2 2 1 1 1 1 1 0
5 6 4 1 2 8 6 3 5 7 2 1 4 6 7 2 1 2 4 6 7 7 7 7 7 7 7 7 6 6 6 4 4 3 3 2 2 2 1 1 1 0 0 0
7 3 4 2 4 4 4 8 6 5 4 2 4 4 5 4 3 3 4 6 6 6 6 6 6 6 6 5 5 5 5 5 4 3 3 3 2 2 1 1 1 1 1 1
5 4 4 2 1 3 3 4 5 5 4 5 3 7 6 7 7 7 6 6 6 6 6 5 5 5 5 5 5 5 4 4 3 3 3 3 2 2 2 1 1 1 1 1
4 6 2 4 3 1 4 5 7 5 4 4 3 8 4 4 5 6 5 5 4 4 4 4 4 4 5 5 4 4 4 4 3 3 3 3 3 3 2 1 1 1 1 1
5 6 2 6 5 2 1 3 4 6 5 5 4 8 2 1 2 3 5 5 4 4 4 4 4 4 4 4 4 4 4 4 3 4 4 3 3 3 2 1 1 1 1 1
6 5 6 8 7 4 2 2 4 6 4 4 7 7 5 2 3 3 4 5 5 5 5 5 4 3 3 3 4 4 4 4 4 4 4 3 3 3 2 2 1 1 1 1
5 3 2 3 3 3 2 3 5 5 7 8 7 7 8 7 6 6 5 5 5 5 5 5 5 4 4 3 3 4 3 3 4 4 4 3 2 2 2 1 1 1 1 1
3 3 2 1 1 1 1 1 3 3 3 4 3 6 5 2 3 4 5 7 7 7 6 5 4 4 4 4 4 4 4 3 3 3 3 2 2 2 2 1 1 1 0 0
2 4 3 2 3 2 3 4 4 3 3 5 6 6 2 2 5 6 7 8 8 7 6 6 6 5 5 5 5 4 4 4 3 3 2 2 2 2 1 2 1 1 1 0
5 5 3 2 2 4 7 2 2 2 2 2 3 3 4 4 3 2 4 6 6 6 6 6 5 4 4 4 4 4 4 4 4 3 2 2 3 2 1 1 1 1 1 1
4 7 5 4 2 4 5 2 1 2 3 2 3 2 2 4 4 2 1 4 5 6 5 5 5 5 5 5 5 5 4 3 3 3 3 3 3 3 2 2 2 2 1 1
5 5 6 4 4 5 5 3 2 2 3 2 3 4 4 5 3 3 2 3 3 4 4 5 5 5 5 4 5 5 4 4 4 4 3 3 3 3 3 3 2 2 1 2
4 4 3 4 3 5 4 5 1 3 6 2 3 4 5 4 4 3 3 3 4 4 4 4 5 5 5 5 5 5 4 4 4 3 2 2 3 3 3 2 2 2 1 1
3 3 3 4 3 5 4 3 2 4 3 1 2 3 4 3 2 3 4 4 4 4 4 4 4 3 3 4 5 4 3 3 2 2 2 2 2 2 3 3 2 2 2 1
2 4 4 5 5 3 2 2 3 2 2 1 2 2 4 4 3 3 3 3 4 4 3 3 3 2 2 3 4 4 3 2 2 2 2 2 1 1 2 3 2 2 2 2
1 1 2 1 2 3 3 3 3 1 1 1 1 2 3 4 3 3 4 3 4 4 3 4 4 3 2 2 2 3 2 3 3 2 2 2 2 1 1 1 2 2 2 2
2 1 1 1 3 3 3 3 3 3 3 4 3 2 3 5 3 4 4 4 4 3 3 3 4 4 3 2 2 2 3 3 3 2 2 2 2 2 2 1 2 2 3 3
3 4 4 4 4 3 4 3 2 2 2 2 2 2 1 3 4 4 4 3 3 4 3 3 4 4 3 3 2 2 2 4 3 2 2 2 2 2 2 1 1 1 2 2
Wind_Direction
97 92 213 216 201 186 165 177 244 258 209 141 195 229 209 186 178 183 183 178 189 196 188 167 158 151 140 139 138 138 133 129 121 107 110 102 73 38 43 39 33 46 48 47
59 248 232 204 185 162 163 175 247 313 60 135 175 281 237 191 197 192 188 187 192 187 170 168 160 153 158 163 161 153 154 146 143 140 134 135 131 119 108 33 37 38 53 49
193 239 198 171 180 186 215 194 206 185 59 45 58 328 278 225 199 192 188 184 186 188 187 183 175 177 174 179 181 174 170 157 151 137 111 92 69 46 39 28 20 10 43 61
233 246 190 201 219 186 247 220 183 158 122 282 105 278 279 230 215 211 202 191 192 189 186 188 185 185 188 190 177 161 159 153 145 136 138 141 140 155 203 169 44 10 28 48
246 205 189 217 227 186 219 127 119 119 126 66 19 192 285 274 236 230 213 199 195 188 190 193 194 191 190 178 167 163 153 148 144 146 154 145 147 163 123 81 60 28 15 19
243 231 201 210 211 165 135 75 63 57 73 352 227 184 273 236 227 226 208 200 192 186 187 190 185 171 173 164 161 159 153 161 160 154 153 158 163 154 129 91 61 12 8 359
315 303 253 158 95 48 104 94 42 4 9 257 225 196 251 249 232 216 205 193 185 183 177 174 169 167 170 168 169 161 157 174 173 160 164 174 172 164 170 179 185 169 5 348
208 291 254 192 172 170 166 140 155 191 222 272 295 236 256 268 263 208 181 174 171 176 175 175 175 173 176 175 167 162 168 180 174 168 177 174 165 167 171 170 168 182 208 242
182 253 283 237 169 142 143 166 159 130 136 278 276 279 297 319 358 133 157 167 178 180 180 178 175 176 176 176 175 175 175 179 179 181 171 155 148 142 140 128 120 122 285 106
166 227 292 311 70 42 133 141 107 118 147 242 284 272 253 253 237 201 184 188 187 177 179 178 178 182 177 173 169 168 171 176 176 168 171 155 139 136 132 116 107 87 42 44
147 169 300 15 165 192 114 105 109 115 150 161 240 267 232 214 206 198 200 194 186 182 181 176 173 172 161 151 153 159 161 158 158 161 146 128 121 117 115 117 107 101 88 78
147 130 230 268 268 179 157 163 149 150 199 175 184 263 281 204 197 188 190 188 177 170 161 155 153 149 149 154 158 157 159 160 159 147 134 129 120 111 108 104 94 93 92 81
137 117 76 345 339 3 97 138 138 120 117 155 180 260 311 136 166 180 180 178 163 153 146 142 139 147 153 157 156 153 155 156 145 136 132 124 124 128 140 155 153 149 123 74
116 116 161 196 219 208 207 166 149 130 147 195 221 244 274 241 203 203 191 174 162 159 155 155 153 151 153 151 146 144 146 147 144 139 139 141 155 160 169 167 149 157 144 123
102 132 190 224 227 182 196 196 179 179 184 190 229 229 242 222 207 197 182 164 156 159 164 165 162 160 156 147 144 145 148 146 147 145 146 157 162 151 146 138 140 144 150 165
73 131 117 318 317 149 177 242 196 207 192 210 237 258 252 214 161 167 175 171 169 173 174 172 167 167 169 167 162 155 154 153 145 147 151 148 134 129 133 133 146 136 132 110
91 121 114 246 309 46 272 242 206 205 204 182 212 236 189 159 183 188 184 180 182 178 173 173 177 180 180 174 165 165 165 150 141 143 148 149 146 138 151 154 137 159 178 142
133 113 122 137 81 221 245 259 189 189 246 218 230 228 194 198 190 171 177 181 186 178 171 172 172 172 172 163 157 153 151 148 147 150 160 162 152 152 165 155 171 205 198 193
143 135 124 128 176 270 293 285 159 170 270 241 196 187 148 122 82 18 203 182 187 181 172 171 168 163 160 160 156 144 146 148 157 176 188 185 169 169 176 186 197 197 187 231
61 92 115 131 161 222 247 291 302 119 282 283 168 170 155 126 137 241 207 165 153 149 154 154 146 140 148 158 147 144 156 163 189 198 196 185 181 181 189 196 200 192 187 202
44 56 110 151 196 250 279 304 17 160 247 276 183 175 162 168 193 198 157 150 148 143 143 139 142 150 157 153 146 155 166 189 202 189 177 182 189 189 189 185 180 169 169 168
158 141 161 143 180 252 329 6 159 227 278 256 170 164 153 145 115 124 131 134 129 125 128 133 137 142 139 142 146 161 186 194 163 158 167 184 191 193 172 165 168 154 148 150
177 186 183 184 207 255 296 268 280 260 265 265 159 152 138 129 132 134 131 135 134 130 137 133 136 133 126 146 156 169 190 153 140 147 167 181 189 187 167 164 165 156 158 179
291 125 126 276 276 292 302 310 334 339 297 316 157 151 140 138 144 143 140 148 143 140 148 142 139 144 156 147 155 173 168 147 146 160 180 172 170 187 179 174 174 177 196 204
243 135 118 266 282 316 326 332 334 353 21 32 52 93 137 134 149 160 157 165 161 149 149 153 153 158 172 164 167 169 157 147 155 169 179 181 182 183 190 197 206 203 216 204
214 184 177 224 229 206 262 292 321 345 17 46 78 84 114 150 162 156 153 155 151 153 154 152 156 164 171 163 172 175 161 156 157 167 178 182 178 180 182 184 282 294 229 223